Time,TemperatureF,DewpointF,PressureIn,WindDirection,WindDirectionDegrees,WindSpeedMPH,WindSpeedGustMPH,Humidity,HourlyPrecipIn,Conditions,Clouds,dailyrainin,SolarRadiationWatts/m^2,SoftwareType,DateUTC
2013-01-15 00:02:00,61.5,58.3,30.15,WSW,255,0.0,0.0,89,0.00,,,0.00,0.0,meteohub,2013-01-15 05:02:00,
2013-01-15 00:03:00,61.5,58.3,30.15,WSW,255,0.0,0.0,89,0.00,,,0.00,0.0,meteohub,2013-01-15 05:03:00,
2013-01-15 00:06:00,61.3,58.1,30.15,WSW,255,0.0,0.0,89,0.00,,,0.00,0.0,meteohub,2013-01-15 05:06:00,
2013-01-15 00:07:00,61.3,58.1,30.15,WSW,255,0.0,0.0,89,0.00,,,0.00,0.0,meteohub,2013-01-15 05:07:00,
2013-01-15 00:12:00,61.2,57.9,30.15,WSW,255,0.0,0.0,89,0.00,,,0.00,0.0,meteohub,2013-01-15 05:12:00,
2013-01-15 00:17:00,61.2,57.9,30.16,WSW,255,0.0,0.0,89,0.00,,,0.00,0.0,meteohub,2013-01-15 05:17:00,
2013-01-15 00:22:00,61.0,57.7,30.15,WSW,255,0.0,0.0,89,0.00,,,0.00,0.0,meteohub,2013-01-15 05:22:00,
2013-01-15 00:27:00,60.8,57.6,30.15,WSW,255,0.0,0.0,89,0.00,,,0.00,0.0,meteohub,2013-01-15 05:27:00,
2013-01-15 00:32:00,60.6,57.7,30.15,WSW,255,0.0,0.0,90,0.00,,,0.00,0.0,meteohub,2013-01-15 05:32:00,
2013-01-15 00:37:00,60.4,57.6,30.15,WSW,255,0.0,0.0,90,0.00,,,0.00,0.0,meteohub,2013-01-15 05:37:00,
2013-01-15 00:42:00,60.4,57.6,30.15,WSW,255,0.0,0.0,90,0.00,,,0.00,0.0,meteohub,2013-01-15 05:42:00,
2013-01-15 00:47:00,60.3,57.6,30.15,WSW,255,0.0,0.0,91,0.00,,,0.00,0.0,meteohub,2013-01-15 05:47:00,
2013-01-15 00:52:00,60.3,57.6,30.15,WSW,255,0.0,0.0,91,0.00,,,0.00,0.0,meteohub,2013-01-15 05:52:00,
2013-01-15 00:57:00,60.1,57.4,30.15,WSW,255,0.0,0.0,91,0.00,,,0.00,0.0,meteohub,2013-01-15 05:57:00,
2013-01-15 01:02:00,59.9,57.2,30.15,WSW,255,0.0,0.0,91,0.00,,,0.00,0.0,meteohub,2013-01-15 06:02:00,
2013-01-15 01:07:00,59.7,57.0,30.15,WSW,255,0.0,0.0,91,0.00,,,0.00,0.0,meteohub,2013-01-15 06:07:00,
2013-01-15 01:12:00,59.5,56.8,30.15,WSW,255,0.0,0.0,91,0.00,,,0.00,0.0,meteohub,2013-01-15 06:12:00,
2013-01-15 01:17:00,59.4,56.7,30.15,WSW,255,0.0,0.0,91,0.00,,,0.00,0.0,meteohub,2013-01-15 06:17:00,
2013-01-15 01:22:00,59.2,56.5,30.15,WSW,255,0.0,0.0,91,0.00,,,0.00,0.0,meteohub,2013-01-15 06:22:00,
2013-01-15 01:27:00,58.8,56.1,30.15,WSW,255,0.0,0.0,91,0.00,,,0.00,0.0,meteohub,2013-01-15 06:27:00,
2013-01-15 01:32:00,58.6,55.9,30.15,WSW,255,0.0,0.0,91,0.00,,,0.00,0.0,meteohub,2013-01-15 06:32:00,
2013-01-15 01:37:00,58.6,55.9,30.14,WSW,255,0.0,0.0,91,0.00,,,0.00,0.0,meteohub,2013-01-15 06:37:00,
2013-01-15 01:42:00,58.5,55.8,30.14,WSW,255,0.0,0.0,91,0.00,,,0.00,0.0,meteohub,2013-01-15 06:42:00,
2013-01-15 01:47:00,58.3,55.6,30.14,WSW,255,0.0,0.0,91,0.00,,,0.00,0.0,meteohub,2013-01-15 06:47:00,
2013-01-15 01:52:00,58.3,55.6,30.14,WSW,255,0.0,0.0,91,0.00,,,0.00,0.0,meteohub,2013-01-15 06:52:00,
2013-01-15 01:57:00,57.9,55.2,30.14,WSW,255,0.0,0.0,91,0.00,,,0.00,0.0,meteohub,2013-01-15 06:57:00,
2013-01-15 02:03:00,57.9,55.2,30.14,WSW,255,0.0,0.0,91,0.00,,,0.00,0.0,meteohub,2013-01-15 07:03:00,
2013-01-15 02:09:00,57.7,55.4,30.14,WSW,255,0.0,0.0,92,0.00,,,0.00,0.0,meteohub,2013-01-15 07:09:00,
2013-01-15 02:16:00,57.6,55.2,30.13,WSW,255,0.0,0.0,92,0.00,,,0.00,0.0,meteohub,2013-01-15 07:16:00,
2013-01-15 02:22:00,57.4,55.0,30.13,WSW,255,0.0,0.0,92,0.00,,,0.00,0.0,meteohub,2013-01-15 07:22:00,
2013-01-15 02:27:00,57.4,55.0,30.13,WSW,255,0.0,0.0,92,0.00,,,0.00,0.0,meteohub,2013-01-15 07:27:00,
2013-01-15 02:32:00,57.2,54.9,30.13,WSW,255,0.0,0.0,92,0.00,,,0.00,0.0,meteohub,2013-01-15 07:32:00,
2013-01-15 02:37:00,57.0,54.7,30.13,WSW,255,0.0,0.0,92,0.00,,,0.00,0.0,meteohub,2013-01-15 07:37:00,
2013-01-15 02:42:00,57.0,54.7,30.14,WSW,255,0.0,0.0,92,0.00,,,0.00,0.0,meteohub,2013-01-15 07:42:00,
2013-01-15 02:47:00,57.0,55.0,30.13,WSW,255,0.0,0.0,93,0.00,,,0.00,0.0,meteohub,2013-01-15 07:47:00,
2013-01-15 02:52:00,57.0,55.0,30.13,WSW,255,0.0,0.0,93,0.00,,,0.00,0.0,meteohub,2013-01-15 07:52:00,
2013-01-15 02:57:00,56.8,54.9,30.14,WSW,255,0.0,0.0,93,0.00,,,0.00,0.0,meteohub,2013-01-15 07:57:00,
2013-01-15 03:02:00,56.8,54.9,30.13,WSW,255,0.0,0.0,93,0.00,,,0.00,0.0,meteohub,2013-01-15 08:02:00,
2013-01-15 03:07:00,56.7,54.7,30.13,WSW,255,0.0,0.0,93,0.00,,,0.00,0.0,meteohub,2013-01-15 08:07:00,
2013-01-15 03:12:00,56.7,54.7,30.13,WSW,255,0.0,0.0,93,0.00,,,0.00,0.0,meteohub,2013-01-15 08:12:00,
2013-01-15 03:17:00,56.5,54.5,30.13,WSW,255,0.0,0.0,93,0.00,,,0.00,0.0,meteohub,2013-01-15 08:17:00,
2013-01-15 03:22:00,56.1,54.1,30.13,WSW,255,0.0,0.0,93,0.00,,,0.00,0.0,meteohub,2013-01-15 08:22:00,
2013-01-15 03:27:00,56.1,54.1,30.13,WSW,255,0.0,0.0,93,0.00,,,0.00,0.0,meteohub,2013-01-15 08:27:00,
2013-01-15 03:32:00,55.9,54.0,30.13,WSW,255,0.0,0.0,93,0.00,,,0.00,0.0,meteohub,2013-01-15 08:32:00,
2013-01-15 03:37:00,55.8,53.8,30.12,WSW,255,0.0,0.0,93,0.00,,,0.00,0.0,meteohub,2013-01-15 08:37:00,
2013-01-15 03:42:00,55.6,53.6,30.12,WSW,255,0.0,0.0,93,0.00,,,0.00,0.0,meteohub,2013-01-15 08:42:00,
2013-01-15 03:47:00,55.4,53.4,30.12,WSW,255,0.0,0.0,93,0.00,,,0.00,0.0,meteohub,2013-01-15 08:47:00,
2013-01-15 03:54:00,55.0,53.1,30.12,WSW,255,0.0,0.0,93,0.00,,,0.00,0.0,meteohub,2013-01-15 08:54:00,
2013-01-15 04:00:00,55.0,53.1,30.12,WSW,255,0.0,0.0,93,0.00,,,0.00,0.0,meteohub,2013-01-15 09:00:00,
2013-01-15 04:06:00,54.9,52.9,30.12,WSW,255,0.0,0.0,93,0.00,,,0.00,0.0,meteohub,2013-01-15 09:06:00,
2013-01-15 04:12:00,54.9,52.9,30.12,WSW,255,0.0,0.0,93,0.00,,,0.00,0.0,meteohub,2013-01-15 09:12:00,
2013-01-15 04:17:00,54.9,52.9,30.12,WSW,255,0.0,0.0,93,0.00,,,0.00,0.0,meteohub,2013-01-15 09:17:00,
2013-01-15 04:22:00,54.9,52.9,30.12,WSW,255,0.0,0.0,93,0.00,,,0.00,0.0,meteohub,2013-01-15 09:22:00,
2013-01-15 04:27:00,54.7,52.7,30.12,WSW,255,0.0,0.0,93,0.00,,,0.00,0.0,meteohub,2013-01-15 09:27:00,
2013-01-15 04:32:00,54.7,53.1,30.12,WSW,255,0.0,0.0,94,0.00,,,0.00,0.0,meteohub,2013-01-15 09:32:00,
2013-01-15 04:37:00,54.7,52.7,30.12,WSW,255,0.0,0.0,93,0.00,,,0.00,0.0,meteohub,2013-01-15 09:37:00,
2013-01-15 04:42:00,54.5,52.5,30.12,WSW,255,0.0,0.0,93,0.00,,,0.00,0.0,meteohub,2013-01-15 09:42:00,
2013-01-15 04:49:00,54.3,52.7,30.11,WSW,255,0.0,0.0,94,0.00,,,0.00,0.0,meteohub,2013-01-15 09:49:00,
2013-01-15 04:56:00,54.3,52.7,30.11,WSW,255,0.0,0.0,94,0.00,,,0.00,0.0,meteohub,2013-01-15 09:56:00,
2013-01-15 05:02:00,54.1,52.5,30.11,WSW,255,0.0,0.0,94,0.00,,,0.00,0.0,meteohub,2013-01-15 10:02:00,
2013-01-15 05:07:00,54.1,52.5,30.11,WSW,255,0.0,0.0,94,0.00,,,0.00,0.0,meteohub,2013-01-15 10:07:00,
2013-01-15 05:12:00,54.1,52.5,30.11,WSW,255,0.0,0.0,94,0.00,,,0.00,0.0,meteohub,2013-01-15 10:12:00,
2013-01-15 05:17:00,54.1,52.5,30.11,WSW,255,0.0,0.0,94,0.00,,,0.00,0.0,meteohub,2013-01-15 10:17:00,
2013-01-15 05:22:00,54.0,52.3,30.11,WSW,255,0.0,0.0,94,0.00,,,0.00,0.0,meteohub,2013-01-15 10:22:00,
2013-01-15 05:27:00,54.0,52.3,30.11,WSW,255,0.0,0.0,94,0.00,,,0.00,0.0,meteohub,2013-01-15 10:27:00,
2013-01-15 05:32:00,53.8,52.2,30.11,WSW,255,0.0,0.0,94,0.00,,,0.00,0.0,meteohub,2013-01-15 10:32:00,
2013-01-15 05:37:00,53.8,52.2,30.11,WSW,255,0.0,0.0,94,0.00,,,0.00,0.0,meteohub,2013-01-15 10:37:00,
2013-01-15 05:42:00,53.6,52.0,30.11,WSW,255,0.0,0.0,94,0.00,,,0.00,0.0,meteohub,2013-01-15 10:42:00,
2013-01-15 05:47:00,53.4,51.8,30.11,WSW,255,0.0,0.0,94,0.00,,,0.00,0.0,meteohub,2013-01-15 10:47:00,
2013-01-15 05:52:00,53.4,51.8,30.11,WSW,255,0.0,0.0,94,0.00,,,0.00,0.0,meteohub,2013-01-15 10:52:00,
2013-01-15 05:57:00,53.4,51.8,30.11,WSW,255,0.0,0.0,94,0.00,,,0.00,0.0,meteohub,2013-01-15 10:57:00,
2013-01-15 06:02:00,53.4,51.8,30.11,WSW,255,0.0,0.0,94,0.00,,,0.00,0.0,meteohub,2013-01-15 11:02:00,
2013-01-15 06:07:00,53.4,51.8,30.11,WSW,255,0.0,0.0,94,0.00,,,0.00,0.0,meteohub,2013-01-15 11:07:00,
2013-01-15 06:12:00,53.2,51.6,30.11,WSW,255,0.0,0.0,94,0.00,,,0.00,0.0,meteohub,2013-01-15 11:12:00,
2013-01-15 06:19:00,53.2,51.6,30.11,WSW,255,0.0,0.0,94,0.00,,,0.00,0.0,meteohub,2013-01-15 11:19:00,
2013-01-15 06:25:00,53.2,51.6,30.11,WSW,255,0.0,0.0,94,0.00,,,0.00,0.0,meteohub,2013-01-15 11:25:00,
2013-01-15 06:31:00,53.2,51.8,30.11,WSW,255,0.0,0.0,95,0.00,,,0.00,0.0,meteohub,2013-01-15 11:31:00,
2013-01-15 06:37:00,53.4,52.0,30.11,WSW,255,0.0,0.0,95,0.00,,,0.00,0.0,meteohub,2013-01-15 11:37:00,
2013-01-15 06:42:00,53.4,52.0,30.11,WSW,255,0.0,0.0,95,0.00,,,0.00,0.0,meteohub,2013-01-15 11:42:00,
2013-01-15 06:47:00,53.4,52.0,30.11,WSW,255,0.0,0.0,95,0.00,,,0.00,0.0,meteohub,2013-01-15 11:47:00,
2013-01-15 06:52:00,53.4,52.0,30.11,WSW,255,0.0,0.0,95,0.00,,,0.00,0.0,meteohub,2013-01-15 11:52:00,
2013-01-15 06:57:00,53.2,51.8,30.11,WSW,255,0.0,0.0,95,0.00,,,0.00,0.0,meteohub,2013-01-15 11:57:00,
2013-01-15 07:02:00,53.2,51.8,30.12,WSW,255,0.0,0.0,95,0.00,,,0.00,0.0,meteohub,2013-01-15 12:02:00,
2013-01-15 07:07:00,53.2,51.8,30.12,WSW,255,0.0,0.0,95,0.00,,,0.00,0.0,meteohub,2013-01-15 12:07:00,
2013-01-15 07:12:00,53.2,51.8,30.12,WSW,255,0.0,0.0,95,0.00,,,0.00,0.0,meteohub,2013-01-15 12:12:00,
2013-01-15 07:17:00,53.1,51.6,30.12,WSW,255,0.0,0.0,95,0.00,,,0.00,0.0,meteohub,2013-01-15 12:17:00,
2013-01-15 07:22:00,53.1,51.6,30.12,WSW,255,0.0,0.0,95,0.00,,,0.00,0.0,meteohub,2013-01-15 12:22:00,
2013-01-15 07:27:00,53.1,51.6,30.12,WSW,255,0.0,0.0,95,0.00,,,0.00,0.0,meteohub,2013-01-15 12:27:00,
2013-01-15 07:32:00,53.2,51.8,30.12,WSW,255,0.0,0.0,95,0.00,,,0.00,5.0,meteohub,2013-01-15 12:32:00,
2013-01-15 07:37:00,53.8,52.7,30.12,WSW,255,0.0,0.0,96,0.00,,,0.00,11.0,meteohub,2013-01-15 12:37:00,
2013-01-15 07:42:00,54.0,52.9,30.12,WSW,255,0.0,0.0,96,0.00,,,0.00,14.0,meteohub,2013-01-15 12:42:00,
2013-01-15 07:47:00,54.0,52.9,30.12,WSW,255,0.0,0.0,96,0.00,,,0.00,19.0,meteohub,2013-01-15 12:47:00,
2013-01-15 07:52:00,54.3,53.2,30.12,WSW,255,0.0,0.0,96,0.00,,,0.00,23.0,meteohub,2013-01-15 12:52:00,
2013-01-15 07:57:00,54.9,53.8,30.13,WSW,255,0.0,0.0,96,0.00,,,0.00,25.0,meteohub,2013-01-15 12:57:00,
2013-01-15 08:02:00,55.6,54.5,30.13,SSW,209,0.0,0.0,96,0.00,,,0.00,28.0,meteohub,2013-01-15 13:02:00,
2013-01-15 08:07:00,56.1,55.2,30.13,SSW,209,0.0,0.0,97,0.00,,,0.00,37.0,meteohub,2013-01-15 13:07:00,
2013-01-15 08:12:00,56.5,55.6,30.13,SSW,209,0.0,0.0,97,0.00,,,0.00,49.0,meteohub,2013-01-15 13:12:00,
2013-01-15 08:17:00,56.8,55.9,30.13,SSE,152,0.0,1.0,97,0.00,,,0.00,53.0,meteohub,2013-01-15 13:17:00,
2013-01-15 08:22:00,57.7,56.8,30.14,SSE,152,0.0,1.0,97,0.00,,,0.00,65.0,meteohub,2013-01-15 13:22:00,
2013-01-15 08:27:00,58.5,57.6,30.14,SSE,152,0.0,2.0,97,0.00,,,0.00,72.0,meteohub,2013-01-15 13:27:00,
2013-01-15 08:32:00,58.6,57.7,30.14,SSE,157,0.0,2.0,97,0.00,,,0.00,81.0,meteohub,2013-01-15 13:32:00,
2013-01-15 08:37:00,59.0,58.1,30.14,SSE,157,1.0,1.0,97,0.00,,,0.00,77.0,meteohub,2013-01-15 13:37:00,
2013-01-15 08:42:00,59.2,58.3,30.14,SSE,157,0.0,1.0,97,0.00,,,0.00,79.0,meteohub,2013-01-15 13:42:00,
2013-01-15 08:47:00,59.4,58.5,30.14,SSE,155,1.0,1.0,97,0.00,,,0.00,98.0,meteohub,2013-01-15 13:47:00,
2013-01-15 08:52:00,59.7,58.8,30.14,SSE,155,1.0,1.0,97,0.00,,,0.00,116.0,meteohub,2013-01-15 13:52:00,
2013-01-15 08:57:00,60.4,59.5,30.14,West,261,0.0,2.0,97,0.00,,,0.00,88.0,meteohub,2013-01-15 13:57:00,
2013-01-15 09:02:00,60.6,59.7,30.14,SSE,155,1.0,2.0,97,0.00,,,0.00,90.0,meteohub,2013-01-15 14:02:00,
2013-01-15 09:08:00,61.2,60.3,30.14,SSE,152,1.0,2.0,97,0.00,,,0.00,125.0,meteohub,2013-01-15 14:08:00,
2013-01-15 09:14:00,61.5,61.0,30.15,South,190,0.0,2.0,98,0.00,,,0.00,158.0,meteohub,2013-01-15 14:14:00,
2013-01-15 09:20:00,62.1,61.2,30.14,West,266,0.0,4.0,97,0.00,,,0.00,146.0,meteohub,2013-01-15 14:20:00,
2013-01-15 09:26:00,62.8,62.2,30.15,SSE,150,0.0,4.0,98,0.00,,,0.00,200.0,meteohub,2013-01-15 14:26:00,
2013-01-15 09:32:00,63.5,63.0,30.14,SSE,148,0.0,4.0,98,0.00,,,0.00,232.0,meteohub,2013-01-15 14:32:00,
2013-01-15 09:37:00,64.0,63.5,30.14,South,180,1.0,4.0,98,0.00,,,0.00,186.0,meteohub,2013-01-15 14:37:00,
2013-01-15 09:42:00,64.9,64.4,30.14,SSE,161,1.0,4.0,98,0.00,,,0.00,160.0,meteohub,2013-01-15 14:42:00,
2013-01-15 09:47:00,65.7,64.8,30.14,SSE,161,2.0,4.0,97,0.00,,,0.00,232.0,meteohub,2013-01-15 14:47:00,
2013-01-15 09:52:00,66.0,65.1,30.15,West,272,0.0,4.0,97,0.00,,,0.00,188.0,meteohub,2013-01-15 14:52:00,
2013-01-15 09:57:00,66.7,65.5,30.15,South,170,1.0,7.0,96,0.00,,,0.00,306.0,meteohub,2013-01-15 14:57:00,
2013-01-15 10:02:00,67.6,66.4,30.15,South,173,0.0,7.0,96,0.00,,,0.00,250.0,meteohub,2013-01-15 15:02:00,
2013-01-15 10:07:00,68.2,66.0,30.15,SE,132,1.0,7.0,93,0.00,,,0.00,223.0,meteohub,2013-01-15 15:07:00,
2013-01-15 10:12:00,68.5,65.8,30.15,WSW,242,1.0,7.0,91,0.00,,,0.00,218.0,meteohub,2013-01-15 15:12:00,
2013-01-15 10:17:00,68.9,65.8,30.15,South,182,0.0,6.0,90,0.00,,,0.00,246.0,meteohub,2013-01-15 15:17:00,
2013-01-15 10:22:00,69.6,66.2,30.15,South,175,3.0,6.0,89,0.00,,,0.00,311.0,meteohub,2013-01-15 15:22:00,
2013-01-15 10:27:00,70.3,66.2,30.15,West,271,0.0,6.0,87,0.00,,,0.00,403.0,meteohub,2013-01-15 15:27:00,
2013-01-15 10:32:00,71.2,66.6,30.15,WSW,255,0.0,6.0,85,0.00,,,0.00,524.0,meteohub,2013-01-15 15:32:00,
2013-01-15 10:37:00,71.4,65.7,30.15,SSE,159,0.0,4.0,82,0.00,,,0.00,411.0,meteohub,2013-01-15 15:37:00,
2013-01-15 10:42:00,71.8,66.4,30.15,SSE,154,0.0,4.0,83,0.00,,,0.00,503.0,meteohub,2013-01-15 15:42:00,
2013-01-15 10:47:00,72.3,66.2,30.14,SW,234,1.0,4.0,81,0.00,,,0.00,413.0,meteohub,2013-01-15 15:47:00,
2013-01-15 10:52:00,72.9,66.7,30.14,South,169,0.0,4.0,81,0.00,,,0.00,550.0,meteohub,2013-01-15 15:52:00,
2013-01-15 10:57:00,73.2,66.0,30.13,South,170,0.0,5.0,78,0.00,,,0.00,552.0,meteohub,2013-01-15 15:57:00,
2013-01-15 11:02:00,73.4,65.7,30.13,WSW,250,2.0,5.0,77,0.00,,,0.00,496.0,meteohub,2013-01-15 16:02:00,
2013-01-15 11:07:00,73.2,65.7,30.13,South,174,0.0,5.0,77,0.00,,,0.00,489.0,meteohub,2013-01-15 16:07:00,
2013-01-15 11:12:00,73.8,65.7,30.13,SE,126,0.0,5.0,76,0.00,,,0.00,515.0,meteohub,2013-01-15 16:12:00,
2013-01-15 11:17:00,74.7,65.5,30.13,WNW,282,4.0,6.0,73,0.00,,,0.00,533.0,meteohub,2013-01-15 16:17:00,
2013-01-15 11:22:00,75.2,65.5,30.13,South,170,0.0,6.0,72,0.00,,,0.00,613.0,meteohub,2013-01-15 16:22:00,
2013-01-15 11:27:00,75.6,65.8,30.12,WSW,255,1.0,6.0,72,0.00,,,0.00,513.0,meteohub,2013-01-15 16:27:00,
2013-01-15 11:32:00,75.4,65.3,30.12,South,174,0.0,6.0,71,0.00,,,0.00,559.0,meteohub,2013-01-15 16:32:00,
2013-01-15 11:37:00,75.4,65.3,30.12,ESE,117,0.0,6.0,71,0.00,,,0.00,582.0,meteohub,2013-01-15 16:37:00,
2013-01-15 11:42:00,75.7,65.7,30.12,SSE,149,1.0,6.0,71,0.00,,,0.00,587.0,meteohub,2013-01-15 16:42:00,
2013-01-15 11:47:00,75.9,65.5,30.12,SSE,157,0.0,6.0,70,0.00,,,0.00,633.0,meteohub,2013-01-15 16:47:00,
2013-01-15 11:52:00,76.5,65.5,30.11,SW,236,3.0,6.0,69,0.00,,,0.00,636.0,meteohub,2013-01-15 16:52:00,
2013-01-15 11:57:00,77.2,65.8,30.11,SW,221,5.0,7.0,68,0.00,,,0.00,584.0,meteohub,2013-01-15 16:57:00,
2013-01-15 12:02:00,76.8,65.5,30.10,WNW,286,1.0,7.0,68,0.00,,,0.00,622.0,meteohub,2013-01-15 17:02:00,
2013-01-15 12:07:00,77.2,65.3,30.10,SE,141,0.0,7.0,67,0.00,,,0.00,684.0,meteohub,2013-01-15 17:07:00,
2013-01-15 12:12:00,77.5,64.8,30.10,SE,136,0.0,7.0,65,0.00,,,0.00,700.0,meteohub,2013-01-15 17:12:00,
2013-01-15 12:17:00,77.5,65.3,30.09,West,263,3.0,6.0,66,0.00,,,0.00,656.0,meteohub,2013-01-15 17:17:00,
2013-01-15 12:22:00,77.5,64.8,30.09,SSW,205,2.0,9.0,65,0.00,,,0.00,663.0,meteohub,2013-01-15 17:22:00,
2013-01-15 12:27:00,77.5,64.8,30.09,SE,130,1.0,9.0,65,0.00,,,0.00,566.0,meteohub,2013-01-15 17:27:00,
2013-01-15 12:32:00,77.4,64.8,30.09,West,275,4.0,10.0,65,0.00,,,0.00,213.0,meteohub,2013-01-15 17:32:00,
2013-01-15 12:37:00,78.6,64.6,30.09,WSW,241,1.0,10.0,62,0.00,,,0.00,770.0,meteohub,2013-01-15 17:37:00,
2013-01-15 12:42:00,79.0,64.8,30.08,WSW,255,0.0,10.0,62,0.00,,,0.00,178.0,meteohub,2013-01-15 17:42:00,
2013-01-15 12:47:00,78.3,64.6,30.08,WNW,283,5.0,6.0,63,0.00,,,0.00,779.0,meteohub,2013-01-15 17:47:00,
2013-01-15 12:52:00,77.7,63.7,30.07,WSW,257,3.0,6.0,62,0.00,,,0.00,179.0,meteohub,2013-01-15 17:52:00,
2013-01-15 12:57:00,77.0,63.9,30.07,WSW,242,0.0,5.0,64,0.00,,,0.00,220.0,meteohub,2013-01-15 17:57:00,
2013-01-15 13:02:00,78.4,63.9,30.06,SE,137,1.0,5.0,61,0.00,,,0.00,722.0,meteohub,2013-01-15 18:02:00,
2013-01-15 13:07:00,79.0,63.5,30.06,WSW,253,2.0,5.0,59,0.00,,,0.00,682.0,meteohub,2013-01-15 18:07:00,
2013-01-15 13:12:00,80.2,64.6,30.06,West,265,5.0,5.0,59,0.00,,,0.00,657.0,meteohub,2013-01-15 18:12:00,
2013-01-15 13:17:00,80.1,63.5,30.06,SSE,156,1.0,9.0,57,0.00,,,0.00,636.0,meteohub,2013-01-15 18:17:00,
2013-01-15 13:22:00,79.5,63.0,30.06,SE,133,4.0,9.0,57,0.00,,,0.00,596.0,meteohub,2013-01-15 18:22:00,
2013-01-15 13:27:00,78.3,62.2,30.06,SSE,160,0.0,9.0,58,0.00,,,0.00,163.0,meteohub,2013-01-15 18:27:00,
2013-01-15 13:32:00,78.3,63.7,30.06,South,177,1.0,9.0,61,0.00,,,0.00,684.0,meteohub,2013-01-15 18:32:00,
2013-01-15 13:37:00,78.6,63.5,30.06,SSW,213,1.0,7.0,60,0.00,,,0.00,188.0,meteohub,2013-01-15 18:37:00,
2013-01-15 13:42:00,78.6,63.5,30.06,WSW,255,2.0,7.0,60,0.00,,,0.00,557.0,meteohub,2013-01-15 18:42:00,
2013-01-15 13:47:00,79.3,62.8,30.06,WNW,291,4.0,5.0,57,0.00,,,0.00,178.0,meteohub,2013-01-15 18:47:00,
2013-01-15 13:52:00,78.3,62.2,30.06,SSE,148,1.0,5.0,58,0.00,,,0.00,167.0,meteohub,2013-01-15 18:52:00,
2013-01-15 13:57:00,78.4,63.3,30.05,West,262,1.0,6.0,60,0.00,,,0.00,345.0,meteohub,2013-01-15 18:57:00,
2013-01-15 14:02:00,79.0,63.0,30.05,SSE,149,0.0,6.0,58,0.00,,,0.00,390.0,meteohub,2013-01-15 19:02:00,
2013-01-15 14:07:00,78.6,63.1,30.05,East,97,2.0,6.0,59,0.00,,,0.00,561.0,meteohub,2013-01-15 19:07:00,
2013-01-15 14:12:00,79.2,62.6,30.05,SSE,167,0.0,6.0,57,0.00,,,0.00,432.0,meteohub,2013-01-15 19:12:00,
2013-01-15 14:17:00,79.7,63.1,30.05,WNW,283,3.0,5.0,57,0.00,,,0.00,287.0,meteohub,2013-01-15 19:17:00,
2013-01-15 14:22:00,79.5,62.4,30.05,West,276,1.0,5.0,56,0.00,,,0.00,142.0,meteohub,2013-01-15 19:22:00,
2013-01-15 14:27:00,78.6,62.1,30.05,South,191,0.0,6.0,57,0.00,,,0.00,580.0,meteohub,2013-01-15 19:27:00,
2013-01-15 14:32:00,79.0,63.0,30.05,SSE,159,3.0,6.0,58,0.00,,,0.00,582.0,meteohub,2013-01-15 19:32:00,
2013-01-15 14:37:00,78.8,62.2,30.04,SW,234,0.0,9.0,57,0.00,,,0.00,123.0,meteohub,2013-01-15 19:37:00,
2013-01-15 14:42:00,78.6,62.1,30.05,SSE,158,0.0,9.0,57,0.00,,,0.00,628.0,meteohub,2013-01-15 19:42:00,
2013-01-15 14:47:00,79.3,62.2,30.04,SSE,156,1.0,9.0,56,0.00,,,0.00,580.0,meteohub,2013-01-15 19:47:00,
2013-01-15 14:52:00,79.0,63.0,30.04,West,271,0.0,9.0,58,0.00,,,0.00,151.0,meteohub,2013-01-15 19:52:00,
2013-01-15 14:57:00,78.6,62.6,30.04,NW,306,0.0,9.0,58,0.00,,,0.00,144.0,meteohub,2013-01-15 19:57:00,
2013-01-15 15:02:00,79.0,63.0,30.05,WSW,243,1.0,9.0,58,0.00,,,0.00,527.0,meteohub,2013-01-15 20:02:00,
2013-01-15 15:07:00,79.5,62.4,30.04,WSW,244,0.0,9.0,56,0.00,,,0.00,155.0,meteohub,2013-01-15 20:07:00,
2013-01-15 15:12:00,78.6,62.6,30.04,West,259,1.0,9.0,58,0.00,,,0.00,148.0,meteohub,2013-01-15 20:12:00,
2013-01-15 15:17:00,78.3,62.8,30.04,NW,320,1.0,5.0,59,0.00,,,0.00,144.0,meteohub,2013-01-15 20:17:00,
2013-01-15 15:22:00,79.3,62.8,30.04,SE,138,3.0,5.0,57,0.00,,,0.00,399.0,meteohub,2013-01-15 20:22:00,
2013-01-15 15:29:00,79.2,62.6,30.04,SSE,163,2.0,5.0,57,0.00,,,0.00,97.0,meteohub,2013-01-15 20:29:00,
2013-01-15 15:35:00,78.4,62.4,30.04,SSE,152,0.0,5.0,58,0.00,,,0.00,90.0,meteohub,2013-01-15 20:35:00,
2013-01-15 15:41:00,77.5,62.6,30.04,SE,141,0.0,5.0,60,0.00,,,0.00,111.0,meteohub,2013-01-15 20:41:00,
2013-01-15 15:47:00,77.4,62.8,30.05,SE,141,0.0,5.0,61,0.00,,,0.00,301.0,meteohub,2013-01-15 20:47:00,
2013-01-15 15:52:00,78.1,62.6,30.04,ESE,123,0.0,5.0,59,0.00,,,0.00,318.0,meteohub,2013-01-15 20:52:00,
2013-01-15 15:57:00,78.4,62.4,30.04,South,186,0.0,5.0,58,0.00,,,0.00,302.0,meteohub,2013-01-15 20:57:00,
2013-01-15 16:02:00,79.0,63.0,30.04,West,279,0.0,5.0,58,0.00,,,0.00,311.0,meteohub,2013-01-15 21:02:00,
2013-01-15 16:07:00,79.7,63.1,30.05,WNW,283,1.0,5.0,57,0.00,,,0.00,330.0,meteohub,2013-01-15 21:07:00,
2013-01-15 16:12:00,79.5,62.4,30.05,West,276,2.0,5.0,56,0.00,,,0.00,223.0,meteohub,2013-01-15 21:12:00,
2013-01-15 16:18:00,78.8,62.2,30.05,SW,224,0.0,5.0,57,0.00,,,0.00,86.0,meteohub,2013-01-15 21:18:00,
2013-01-15 16:24:00,77.7,62.2,30.05,South,181,0.0,5.0,59,0.00,,,0.00,81.0,meteohub,2013-01-15 21:24:00,
2013-01-15 16:31:00,76.8,62.4,30.05,South,181,0.0,5.0,61,0.00,,,0.00,98.0,meteohub,2013-01-15 21:31:00,
2013-01-15 16:37:00,76.6,63.1,30.05,South,181,0.0,4.0,63,0.00,,,0.00,74.0,meteohub,2013-01-15 21:37:00,
2013-01-15 16:42:00,76.6,63.1,30.05,South,181,0.0,4.0,63,0.00,,,0.00,104.0,meteohub,2013-01-15 21:42:00,
2013-01-15 16:47:00,76.6,63.1,30.06,SW,231,0.0,1.0,63,0.00,,,0.00,105.0,meteohub,2013-01-15 21:47:00,
2013-01-15 16:52:00,76.6,63.5,30.06,SW,215,0.0,1.0,64,0.00,,,0.00,72.0,meteohub,2013-01-15 21:52:00,
2013-01-15 16:57:00,76.3,63.1,30.06,SW,215,0.0,4.0,64,0.00,,,0.00,67.0,meteohub,2013-01-15 21:57:00,
2013-01-15 17:05:00,76.1,63.0,30.06,SW,215,1.0,2.0,64,0.00,,,0.00,51.0,meteohub,2013-01-15 22:05:00,
2013-01-15 17:11:00,76.1,63.0,30.06,SSW,200,0.0,2.0,64,0.00,,,0.00,46.0,meteohub,2013-01-15 22:11:00,
2013-01-15 17:17:00,76.1,63.0,30.06,ENE,72,0.0,2.0,64,0.00,,,0.00,35.0,meteohub,2013-01-15 22:17:00,
2013-01-15 17:22:00,75.9,63.3,30.06,ENE,72,0.0,2.0,65,0.00,,,0.00,32.0,meteohub,2013-01-15 22:22:00,
2013-01-15 17:27:00,75.7,63.1,30.06,ENE,72,0.0,1.0,65,0.00,,,0.00,25.0,meteohub,2013-01-15 22:27:00,
2013-01-15 17:32:00,75.6,63.0,30.06,ENE,72,0.0,1.0,65,0.00,,,0.00,18.0,meteohub,2013-01-15 22:32:00,
2013-01-15 17:37:00,75.4,62.8,30.06,ENE,72,0.0,1.0,65,0.00,,,0.00,11.0,meteohub,2013-01-15 22:37:00,
2013-01-15 17:42:00,75.2,63.1,30.06,ENE,72,0.0,1.0,66,0.00,,,0.00,5.0,meteohub,2013-01-15 22:42:00,
2013-01-15 17:47:00,74.8,63.1,30.06,ENE,72,0.0,0.0,67,0.00,,,0.00,0.0,meteohub,2013-01-15 22:47:00,
2013-01-15 17:52:00,74.5,62.8,30.06,ENE,72,0.0,0.0,67,0.00,,,0.00,0.0,meteohub,2013-01-15 22:52:00,
2013-01-15 17:57:00,73.9,62.8,30.06,ENE,72,0.0,0.0,68,0.00,,,0.00,0.0,meteohub,2013-01-15 22:57:00,
2013-01-15 18:02:00,73.6,62.8,30.06,ENE,72,0.0,0.0,69,0.00,,,0.00,0.0,meteohub,2013-01-15 23:02:00,
2013-01-15 18:07:00,72.9,62.1,30.06,ENE,72,0.0,0.0,69,0.00,,,0.00,0.0,meteohub,2013-01-15 23:07:00,
2013-01-15 18:12:00,72.3,62.1,30.06,ENE,72,0.0,0.0,70,0.00,,,0.00,0.0,meteohub,2013-01-15 23:12:00,
2013-01-15 18:17:00,72.0,62.1,30.07,ENE,72,0.0,0.0,71,0.00,,,0.00,0.0,meteohub,2013-01-15 23:17:00,
2013-01-15 18:22:00,71.2,61.7,30.06,ENE,72,0.0,0.0,72,0.00,,,0.00,0.0,meteohub,2013-01-15 23:22:00,
2013-01-15 18:27:00,70.9,61.3,30.07,ENE,72,0.0,0.0,72,0.00,,,0.00,0.0,meteohub,2013-01-15 23:27:00,
2013-01-15 18:32:00,70.3,61.3,30.07,ENE,72,0.0,0.0,73,0.00,,,0.00,0.0,meteohub,2013-01-15 23:32:00,
2013-01-15 18:37:00,70.0,61.3,30.07,ENE,72,0.0,0.0,74,0.00,,,0.00,0.0,meteohub,2013-01-15 23:37:00,
2013-01-15 18:42:00,69.6,61.3,30.07,ENE,72,0.0,0.0,75,0.00,,,0.00,0.0,meteohub,2013-01-15 23:42:00,
2013-01-15 18:47:00,69.3,61.3,30.07,ENE,72,0.0,0.0,76,0.00,,,0.00,0.0,meteohub,2013-01-15 23:47:00,
2013-01-15 18:52:00,69.1,61.2,30.07,ENE,72,0.0,0.0,76,0.00,,,0.00,0.0,meteohub,2013-01-15 23:52:00,
2013-01-15 18:57:00,68.5,61.0,30.07,ENE,72,0.0,0.0,77,0.00,,,0.00,0.0,meteohub,2013-01-15 23:57:00,
2013-01-15 19:02:00,68.2,60.6,30.07,ENE,72,0.0,0.0,77,0.00,,,0.00,0.0,meteohub,2013-01-16 00:02:00,
2013-01-15 19:07:00,67.8,60.6,30.07,ENE,72,0.0,1.0,78,0.00,,,0.00,0.0,meteohub,2013-01-16 00:07:00,
2013-01-15 19:14:00,67.5,60.4,30.07,ENE,72,0.0,1.0,78,0.00,,,0.00,0.0,meteohub,2013-01-16 00:14:00,
2013-01-15 19:20:00,67.1,60.4,30.07,ENE,72,0.0,0.0,79,0.00,,,0.00,0.0,meteohub,2013-01-16 00:20:00,
2013-01-15 19:26:00,66.7,60.4,30.07,ENE,72,0.0,0.0,80,0.00,,,0.00,0.0,meteohub,2013-01-16 00:26:00,
2013-01-15 19:32:00,66.7,60.8,30.07,ENE,72,0.0,0.0,81,0.00,,,0.00,0.0,meteohub,2013-01-16 00:32:00,
2013-01-15 19:37:00,66.6,61.0,30.07,ENE,72,0.0,0.0,82,0.00,,,0.00,0.0,meteohub,2013-01-16 00:37:00,
2013-01-15 19:42:00,66.4,60.8,30.07,ENE,72,0.0,0.0,82,0.00,,,0.00,0.0,meteohub,2013-01-16 00:42:00,
2013-01-15 19:47:00,66.2,60.8,30.07,ENE,72,0.0,0.0,83,0.00,,,0.00,0.0,meteohub,2013-01-16 00:47:00,
2013-01-15 19:52:00,66.0,61.0,30.07,ENE,72,0.0,0.0,84,0.00,,,0.00,0.0,meteohub,2013-01-16 00:52:00,
2013-01-15 19:57:00,65.8,60.8,30.06,ENE,72,0.0,0.0,84,0.00,,,0.00,0.0,meteohub,2013-01-16 00:57:00,
2013-01-15 20:02:00,65.8,61.2,30.06,ENE,72,0.0,0.0,85,0.00,,,0.00,0.0,meteohub,2013-01-16 01:02:00,
2013-01-15 20:07:00,65.8,61.5,30.06,ENE,72,0.0,0.0,86,0.00,,,0.00,0.0,meteohub,2013-01-16 01:07:00,
2013-01-15 20:12:00,65.7,61.7,30.06,ENE,72,0.0,0.0,87,0.00,,,0.00,0.0,meteohub,2013-01-16 01:12:00,
2013-01-15 20:17:00,65.5,61.5,30.06,ENE,72,0.0,0.0,87,0.00,,,0.00,0.0,meteohub,2013-01-16 01:17:00,
2013-01-15 20:22:00,65.5,61.5,30.06,ENE,72,0.0,0.0,87,0.00,,,0.00,0.0,meteohub,2013-01-16 01:22:00,
2013-01-15 20:27:00,65.3,61.7,30.06,ENE,72,0.0,0.0,88,0.00,,,0.00,0.0,meteohub,2013-01-16 01:27:00,
2013-01-15 20:32:00,65.3,61.7,30.06,ENE,72,0.0,0.0,88,0.00,,,0.00,0.0,meteohub,2013-01-16 01:32:00,
2013-01-15 20:37:00,65.1,61.9,30.06,ENE,72,0.0,1.0,89,0.00,,,0.00,0.0,meteohub,2013-01-16 01:37:00,
2013-01-15 20:42:00,65.1,61.9,30.06,ENE,72,0.0,1.0,89,0.00,,,0.00,0.0,meteohub,2013-01-16 01:42:00,
2013-01-15 20:47:00,65.1,61.9,30.06,ENE,72,0.0,1.0,89,0.00,,,0.00,0.0,meteohub,2013-01-16 01:47:00,
2013-01-15 20:52:00,65.1,61.9,30.06,ENE,72,0.0,1.0,89,0.00,,,0.00,0.0,meteohub,2013-01-16 01:52:00,
2013-01-15 20:57:00,64.9,61.7,30.06,ENE,72,0.0,1.0,89,0.00,,,0.00,0.0,meteohub,2013-01-16 01:57:00,
2013-01-15 21:02:00,64.9,61.7,30.06,ENE,72,0.0,1.0,89,0.00,,,0.00,0.0,meteohub,2013-01-16 02:02:00,
2013-01-15 21:07:00,64.9,61.7,30.06,ENE,72,0.0,0.0,89,0.00,,,0.00,0.0,meteohub,2013-01-16 02:07:00,
2013-01-15 21:14:00,64.9,61.9,30.06,ENE,72,0.0,1.0,90,0.00,,,0.00,0.0,meteohub,2013-01-16 02:14:00,
2013-01-15 21:20:00,64.9,61.9,30.06,ENE,72,0.0,1.0,90,0.00,,,0.00,0.0,meteohub,2013-01-16 02:20:00,
2013-01-15 21:26:00,64.8,61.7,30.06,ENE,72,0.0,1.0,90,0.00,,,0.00,0.0,meteohub,2013-01-16 02:26:00,
2013-01-15 21:32:00,64.8,61.7,30.06,SE,128,0.0,1.0,90,0.00,,,0.00,0.0,meteohub,2013-01-16 02:32:00,
2013-01-15 21:37:00,64.8,61.7,30.06,SE,128,0.0,2.0,90,0.00,,,0.00,0.0,meteohub,2013-01-16 02:37:00,
2013-01-15 21:42:00,64.8,61.7,30.06,SE,128,0.0,2.0,90,0.00,,,0.00,0.0,meteohub,2013-01-16 02:42:00,
2013-01-15 21:48:00,64.8,61.7,30.06,SE,128,0.0,2.0,90,0.00,,,0.00,0.0,meteohub,2013-01-16 02:48:00,
2013-01-15 21:54:00,64.6,61.5,30.06,SE,128,0.0,0.0,90,0.00,,,0.00,0.0,meteohub,2013-01-16 02:54:00,
2013-01-15 22:00:00,64.6,61.5,30.06,SE,128,0.0,1.0,90,0.00,,,0.00,0.0,meteohub,2013-01-16 03:00:00,
2013-01-15 22:06:00,64.4,61.3,30.06,SE,128,0.0,1.0,90,0.00,,,0.00,0.0,meteohub,2013-01-16 03:06:00,
2013-01-15 22:12:00,64.2,61.2,30.06,SE,128,0.0,1.0,90,0.00,,,0.00,0.0,meteohub,2013-01-16 03:12:00,
2013-01-15 22:17:00,64.2,61.2,30.06,SE,128,0.0,1.0,90,0.00,,,0.00,0.0,meteohub,2013-01-16 03:17:00,
2013-01-15 22:22:00,64.0,61.0,30.06,SE,128,0.0,1.0,90,0.00,,,0.00,0.0,meteohub,2013-01-16 03:22:00,
2013-01-15 22:27:00,64.0,61.0,30.05,SE,128,0.0,1.0,90,0.00,,,0.00,0.0,meteohub,2013-01-16 03:27:00,
2013-01-15 22:32:00,63.9,60.8,30.06,SE,128,0.0,1.0,90,0.00,,,0.00,0.0,meteohub,2013-01-16 03:32:00,
2013-01-15 22:37:00,63.9,61.2,30.05,SE,128,0.0,1.0,91,0.00,,,0.00,0.0,meteohub,2013-01-16 03:37:00,
2013-01-15 22:42:00,63.9,61.2,30.05,SE,128,0.0,1.0,91,0.00,,,0.00,0.0,meteohub,2013-01-16 03:42:00,
2013-01-15 22:47:00,63.7,61.0,30.05,SE,128,0.0,1.0,91,0.00,,,0.00,0.0,meteohub,2013-01-16 03:47:00,
2013-01-15 22:52:00,63.7,61.0,30.05,SE,128,0.0,1.0,91,0.00,,,0.00,0.0,meteohub,2013-01-16 03:52:00,
2013-01-15 22:57:00,63.7,61.3,30.05,SE,128,0.0,0.0,92,0.00,,,0.00,0.0,meteohub,2013-01-16 03:57:00,
2013-01-15 23:02:00,63.7,61.3,30.05,SE,128,0.0,0.0,92,0.00,,,0.00,0.0,meteohub,2013-01-16 04:02:00,
2013-01-15 23:07:00,63.7,61.3,30.05,SE,128,0.0,1.0,92,0.00,,,0.00,0.0,meteohub,2013-01-16 04:07:00,
2013-01-15 23:14:00,63.5,61.2,30.05,SE,128,0.0,0.0,92,0.00,,,0.00,0.0,meteohub,2013-01-16 04:14:00,
2013-01-15 23:20:00,63.3,61.0,30.05,SE,128,0.0,0.0,92,0.00,,,0.00,0.0,meteohub,2013-01-16 04:20:00,
2013-01-15 23:27:00,63.1,60.8,30.05,SE,128,0.0,0.0,92,0.00,,,0.00,0.0,meteohub,2013-01-16 04:27:00,
2013-01-15 23:32:00,63.1,60.8,30.05,SE,128,0.0,0.0,92,0.00,,,0.00,0.0,meteohub,2013-01-16 04:32:00,
2013-01-15 23:37:00,63.0,60.6,30.05,SE,128,0.0,0.0,92,0.00,,,0.00,0.0,meteohub,2013-01-16 04:37:00,
2013-01-15 23:42:00,62.8,60.4,30.05,SE,128,0.0,0.0,92,0.00,,,0.00,0.0,meteohub,2013-01-16 04:42:00,
2013-01-15 23:47:00,62.4,60.1,30.05,SE,128,0.0,0.0,92,0.00,,,0.00,0.0,meteohub,2013-01-16 04:47:00,
2013-01-15 23:52:00,62.2,59.9,30.05,SE,128,0.0,0.0,92,0.00,,,0.00,0.0,meteohub,2013-01-16 04:52:00,
2013-01-15 23:57:00,62.1,59.4,30.05,SE,128,0.0,0.0,91,0.00,,,0.00,0.0,meteohub,2013-01-16 04:57:00,